• Join FlightAware (Why Join?)
  • Login
  • US Flag 
10:04AM EDT


 

Airport Tracker/Info


-or-


 

Live Flight TrackerFlight Track Log ✈ ABX501 ✈ 20-Oct-2013 ✈ KCVG - KIAH

Flight Track Log - Related Links

Times and Time Zones

All times are in EDT time to prevent confusion due to time zone crossing. See the ABX501 flight status page for this flight to view local times or setup timezone preferences in your user account.

Time Position Orientation Groundspeed Altitude Reporting Facility
EDT Latitude Longitude Course Direction KTS MPH feet Rate Location/Type
06:17PM 39.0500 -84.6833 270° West 155 178 1,300  Level Cincinnati TRACON
06:18PM 39.0500 -84.7000 270° West 158 182 2,100 1,800 Climbing Cincinnati TRACON
06:19PM 39.0500 -84.7833 270° West 205 236 3,900 1,920 Climbing Cincinnati TRACON
06:20PM 39.0000 -84.8167 207° Southwest 258 297 6,000 2,280 Climbing Cincinnati TRACON
06:22PM 38.8664 -84.8614 195° South 272 313 10,500 1,980 Climbing Indianapolis Center
06:23PM 38.7828 -84.9008 200° South 328 377 11,900 1,980 Climbing Indianapolis Center
06:24PM 38.7067 -84.9772 218° Southwest 349 402 14,700 2,700 Climbing Indianapolis Center
06:25PM 38.6297 -85.0844 227° Southwest 353 406 17,600 2,460 Climbing Indianapolis Center
06:26PM 38.5639 -85.1817 229° Southwest 361 415 19,900 2,220 Climbing Indianapolis Center
06:27PM 38.4989 -85.2775 229° Southwest 366 421 22,300 2,100 Climbing Indianapolis Center
06:28PM 38.4286 -85.3783 228° Southwest 374 430 24,300 1,800 Climbing Indianapolis Center
06:29PM 38.3439 -85.5022 229° Southwest 382 440 26,100 840 Climbing Indianapolis Center
06:30PM 38.2692 -85.6089 228° Southwest 395 455 26,100 300 Level Indianapolis Center
06:31PM 38.1950 -85.7128 228° Southwest 395 455 26,800 1,200 Climbing Indianapolis Center
06:32PM 38.1217 -85.8189 229° Southwest 397 457 28,600 1,620 Climbing Indianapolis Center
06:33PM 38.0467 -85.9278 229° Southwest 405 466 30,200 1,740 Climbing Indianapolis Center
06:34PM 37.9706 -86.0336 228° Southwest 404 465 32,200 1,740 Climbing Indianapolis Center
06:35PM 37.8969 -86.1400 229° Southwest 400 460 33,800 840 Climbing Indianapolis Center
06:36PM 37.8161 -86.2536 228° Southwest 394 453 34,000 60 Climbing Indianapolis Center
06:37PM 37.7456 -86.3553 229° Southwest 385 443 34,000  Level Indianapolis Center
06:38PM 37.6714 -86.4558 227° Southwest 386 444 34,000  Level Indianapolis Center
06:39PM 37.5889 -86.5714 228° Southwest 396 456 34,000  Level Indianapolis Center
06:40PM 37.5089 -86.6828 228° Southwest 399 459 34,000  Level Indianapolis Center
06:41PM 37.4344 -86.7867 228° Southwest 397 457 34,000  Level Indianapolis Center
06:42PM 37.3592 -86.8914 228° Southwest 400 460 34,000  Level Indianapolis Center
06:43PM 37.2842 -86.9947 228° Southwest 399 459 34,000  Level Indianapolis Center
06:44PM 37.2100 -87.0981 228° Southwest 396 456 34,000  Level Indianapolis Center
06:45PM 37.1347 -87.2008 227° Southwest 397 457 34,000  Level Indianapolis Center
06:46PM 37.0483 -87.3197 228° Southwest 394 453 34,000  Level Indianapolis Center
06:47PM 36.9731 -87.4217 227° Southwest 393 452 34,000  Level Memphis Center
06:48PM 36.8992 -87.5233 228° Southwest 393 452 34,000  Level Memphis Center
06:50PM 36.8244 -87.6228 227° Southwest 392 451 34,000  Level Memphis Center
06:51PM 36.7503 -87.7222 227° Southwest 390 449 34,000  Level Memphis Center
06:52PM 36.6772 -87.8219 228° Southwest 389 448 34,000  Level Memphis Center
06:53PM 36.6028 -87.9214 227° Southwest 389 448 34,000  Level Memphis Center
06:54PM 36.5161 -88.0369 227° Southwest 389 448 34,000  Level Memphis Center
06:55PM 36.4481 -88.1272 227° Southwest 389 448 34,000  Level Memphis Center
06:56PM 36.3739 -88.2258 227° Southwest 389 448 34,000  Level Memphis Center
06:57PM 36.3003 -88.3228 227° Southwest 387 445 34,000  Level Memphis Center
06:58PM 36.2117 -88.4408 227° Southwest 387 445 34,000  Level Memphis Center
06:59PM 36.1369 -88.5383 227° Southwest 388 447 34,000  Level Memphis Center
07:00PM 36.0619 -88.6369 227° Southwest 390 449 34,000  Level Memphis Center
07:01PM 35.9858 -88.7347 226° Southwest 391 450 34,000  Level Memphis Center
07:02PM 35.9111 -88.8331 227° Southwest 390 449 34,000  Level Memphis Center
07:03PM 35.8358 -88.9308 226° Southwest 391 450 34,000  Level Memphis Center
07:04PM 35.7603 -89.0289 226° Southwest 392 451 34,000  Level Memphis Center
07:05PM 35.6817 -89.1300 226° Southwest 390 449 34,000  Level Memphis Center
07:06PM 35.5933 -89.2436 226° Southwest 390 449 34,000  Level Memphis Center
07:07PM 35.5178 -89.3408 226° Southwest 390 449 34,000  Level Memphis Center
07:08PM 35.4417 -89.4386 226° Southwest 392 451 34,000  Level Memphis Center
07:09PM 35.3669 -89.5350 226° Southwest 389 448 34,000  Level Memphis Center
07:10PM 35.2922 -89.6308 226° Southwest 387 445 34,000  Level Memphis Center
07:11PM 35.2125 -89.7217 223° Southwest 389 448 34,000  Level Memphis Center
07:12PM 35.1267 -89.8044 218° Southwest 391 450 34,000  Level Memphis Center
07:13PM 35.0261 -89.9008 218° Southwest 394 453 34,000  Level Memphis Center
07:14PM 34.9408 -89.9839 219° Southwest 394 453 34,000  Level Memphis Center
07:15PM 34.8544 -90.0650 218° Southwest 394 453 34,000  Level Memphis Center
07:16PM 34.7672 -90.1469 218° Southwest 395 455 34,000  Level Memphis Center
07:17PM 34.6806 -90.2275 217° Southwest 391 450 34,000  Level Memphis Center
07:18PM 34.5789 -90.3242 218° Southwest 393 452 34,000  Level Memphis Center
07:20PM 34.4914 -90.4050 217° Southwest 394 453 34,000  Level Memphis Center
07:21PM 34.4033 -90.4875 218° Southwest 395 455 34,000  Level Memphis Center
07:22PM 34.3158 -90.5703 218° Southwest 397 457 34,000  Level Memphis Center
07:23PM 34.2267 -90.6514 217° Southwest 397 457 34,000  Level Memphis Center
07:24PM 34.1386 -90.7331 218° Southwest 396 456 34,000  Level Memphis Center
07:25PM 34.0514 -90.8144 218° Southwest 393 452 34,000  Level Memphis Center
07:26PM 33.9486 -90.9083 217° Southwest 394 453 34,000  Level Memphis Center
07:27PM 33.8600 -90.9889 217° Southwest 394 453 34,000  Level Memphis Center
07:28PM 33.7844 -91.0600 218° Southwest 392 451 34,000  Level Memphis Center
07:29PM 33.6806 -91.1544 217° Southwest 393 452 34,000  Level Memphis Center
07:30PM 33.5947 -91.2331 217° Southwest 393 452 34,000  Level Memphis Center
07:31PM 33.5072 -91.3108 217° Southwest 393 452 34,000  Level Memphis Center
07:32PM 33.4208 -91.3894 217° Southwest 393 452 34,000  Level Memphis Center
07:33PM 33.3356 -91.4650 217° Southwest 389 448 34,000  Level Memphis Center
07:34PM 33.2347 -91.5583 218° Southwest 386 444 34,000  Level Memphis Center
07:35PM 33.1486 -91.6344 217° Southwest 387 445 34,000  Level Memphis Center
07:36PM 33.0628 -91.7117 217° Southwest 389 448 34,000  Level Memphis Center
07:37PM 32.9781 -91.7869 217° Southwest 386 444 34,000  Level Memphis Center
07:38PM 32.8750 -91.8786 217° Southwest 386 444 34,000  Level Memphis Center
07:39PM 32.8061 -91.9417 218° Southwest 385 443 34,000  Level Fort Worth Center
07:41PM 32.6186 -92.1081 217° Southwest 383 441 34,000  Level Memphis Center
07:42PM 32.5325 -92.1850 217° Southwest 384 442 34,000  Level Memphis Center
07:43PM 32.4475 -92.2614 217° Southwest 384 442 34,000  Level Memphis Center
07:45PM 32.3264 -92.3675 217° Southwest 385 443 34,000  Level Houston Center
07:46PM 32.2425 -92.4442 218° Southwest 383 441 34,000  Level Houston Center
07:47PM 32.1558 -92.5186 216° Southwest 385 443 34,000  Level Houston Center
07:48PM 32.0697 -92.5931 216° Southwest 384 442 34,000 -60 Level Houston Center
07:49PM 31.9861 -92.6686 217° Southwest 380 437 33,900  Descending Houston Center
07:50PM 31.9033 -92.7456 218° Southwest 379 436 34,000  Climbing Houston Center
07:51PM 31.8225 -92.8247 220° Southwest 378 435 34,000 -60 Level Houston Center
07:52PM 31.7250 -92.9183 219° Southwest 378 435 33,900  Descending Houston Center
07:53PM 31.6481 -92.9911 219° Southwest 362 417 34,000  Climbing Houston Center
07:54PM 31.5733 -93.0631 219° Southwest 351 404 34,000  Level Houston Center
07:55PM 31.4994 -93.1353 220° Southwest 347 399 34,000  Level Houston Center
07:56PM 31.4242 -93.2058 219° Southwest 348 400 34,000  Level Houston Center
07:57PM 31.3408 -93.2872 220° Southwest 348 400 34,000  Level Houston Center
07:58PM 31.2589 -93.3644 219° Southwest 350 403 34,000  Level Houston Center
07:59PM 31.1839 -93.4356 219° Southwest 348 400 34,000  Level Houston Center
08:00PM 31.1089 -93.5083 220° Southwest 350 403 34,000  Level Houston Center
08:01PM 31.0342 -93.5786 219° Southwest 348 400 34,000  Level Houston Center
08:02PM 30.9594 -93.6497 219° Southwest 346 398 34,000 -120 Level Houston Center
08:03PM 30.8694 -93.7356 219° Southwest 351 404 33,800 -1,440 Descending Houston Center
08:04PM 30.7925 -93.8078 219° Southwest 354 407 31,100 -2,580 Descending Houston Center
08:05PM 30.7156 -93.8817 220° Southwest 360 414 28,500 -2,520 Descending Houston Center
08:06PM 30.6397 -93.9536 219° Southwest 357 411 26,000 -2,460 Descending Houston Center
08:07PM 30.5644 -94.0233 219° Southwest 351 404 23,500 -2,520 Descending Houston Center
08:08PM 30.4900 -94.0931 219° Southwest 348 400 20,900 -2,760 Descending Houston Center
08:09PM 30.4011 -94.1767 219° Southwest 346 398 17,900 -2,820 Descending Houston Center
08:10PM 30.3792 -94.1978 220° Southwest 346 398 17,300 -2,460 Descending Houston Center
08:10PM 30.3264 -94.2472 219° Southwest 347 399 15,400 -2,640 Descending Houston Center
08:11PM 30.3119 -94.2600 217° Southwest 348 400 14,900 -2,340 Descending Houston Center
08:11PM 30.2508 -94.3175 219° Southwest 348 400 13,000 -2,340 Descending Houston Center
08:11PM 30.2386 -94.3253 209° Southwest 350 403 12,800 -1,320 Descending Houston Center
08:12PM 30.1911 -94.3861 228° Southwest 305 351 11,700 -1,260 Descending Houston Center
08:13PM 30.1792 -94.4056 235° Southwest 265 305 11,400 -1,260 Descending Houston Center
08:13PM 30.1494 -94.4556 236° Southwest 266 306 10,400 -1,440 Descending Houston Center
08:13PM 30.1392 -94.4689 228° Southwest 267 307 10,100 -1,320 Descending Houston Center
08:15PM 30.0944 -94.5472 237° Southwest 273 314 8,900 -1,020 Descending Houston Center
08:16PM 30.0625 -94.6014 236° Southwest 270 311 8,100 -1,140 Descending Houston Center
08:16PM 30.0489 -94.6208 231° Southwest 266 306 7,800 -1,140 Descending Houston Center
08:17PM 30.0206 -94.6706 237° Southwest 264 304 7,000 -1,140 Descending Houston Center
08:17PM 30.0053 -94.6914 230° Southwest 262 302 6,700 -2,160 Descending Houston Center
08:18PM 29.9728 -94.7542 239° Southwest 260 299 4,800 -2,220 Descending Houston Center
08:18PM 29.9744 -94.7631 282° West 256 295 4,500 -1,020 Descending Houston Center
08:19PM 29.9772 -94.8383 272° West 266 306 3,800 -840 Descending Houston Center
08:19PM 29.9761 -94.8472 262° West 260 299 3,700 -780 Descending Houston Center
08:20PM 29.9783 -94.9158 272° West 249 287 3,000 -840 Descending Houston Center
08:20PM 29.9756 -94.9294 257° West 234 269 2,900 -540 Descending Houston Center
08:21PM 29.9772 -94.9919 272° West 233 268 2,500 -420 Descending Houston Center
08:21PM 29.9783 -94.9894 63° Northeast 236 272 2,500 -300 Level Houston Center
08:22PM 29.9761 -95.0692 268° West 224 258 2,200 -300 Descending Houston Center
08:22PM 29.9781 -95.0614 74° East 227 261 2,200  Level Houston Center
08:23PM 29.9781 -95.1319 270° West 224 258 2,200 -240 Level Houston Center
08:24PM 29.9781 -95.2017 270° West 165 190 1,800 -540 Descending Houston Center
08:24PM 29.9783 -95.2053 275° West 190 219 1,700 -900 Descending Houston Center
08:25PM 29.9769 -95.2572 268° West 145 167 900 -780 Descending Houston Center
08:25PM 29.9783 -95.2578 341° North 169 194 900 -540 Level Houston Center
08:26PM 29.9792 -95.3092 271° West 159 183 300 -600 Descending Houston Center
08:28PM 29.9833 -95.3333 274° West  Level FlightAware Approximate